Weather History for London City, United Kingdom

Change the Weather History Date:

Wednesday, January 30, 2013

  Actual Average Record
Temperature  
Mean Temperature 50 °F -  
Max Temperature 55 °F 45 °F 57 °F (2002)
Min Temperature 44 °F 39 °F 32 °F (2003)
Degree Days  
Heating Degree Days 14    
Moisture  
Dew Point 42 °F    
Average Humidity 74    
Maximum Humidity 94    
Minimum Humidity 50    
Precipitation  
Precipitation 0.00 in - - ()
Sea Level Pressure  
Sea Level Pressure 29.72 in    
Wind  
Wind Speed 17 mph ()    
Max Wind Speed 29 mph    
Max Gust Speed 46 mph    
Visibility 5.9 miles    
Events Rain    
Averages and records for this station are not official NWS values.
T = Trace of Precipitation, MM = Missing Value Source: Averaged Metar Reports

Daily Weather History Graph

Daily Weather History Graph

Search for Another Location

Airport:

Trip Planner

Search our weather history database for the weather conditions in past years. The results will help you decide how hot, cold, wet, or windy it might be!

Date:

Astronomy

Jan. 30, 2013 Rise Set
Actual Time 7:40 AM GMT 4:45 PM GMT
Civil Twilight 7:04 AM GMT 5:22 PM GMT
Nautical Twilight 6:24 AM GMT 6:02 PM GMT
Astronomical Twilight 5:45 AM GMT 6:41 PM GMT
Moon 9:02 PM GMT (1/30) 8:31 AM GMT (1/30)
Length of Visible Light 10h 17m
Length of Day
9h 05m
Waning Gibbous, 89% of the Moon is Illuminated
Jan 30
Waning Gibbous
Feb 3
Last Quarter
Feb 10
New
Feb 17
First Quarter
Feb 25
Full

Hourly Weather History & Observations

Time (GMT) Temp. Windchill Dew Point Humidity Pressure Visibility Wind Dir Wind Speed Gust Speed Precip Events Conditions
12:20 AM 55.4 °F - 50.0 °F 82% 29.53 in 6.2 mi SSW 20.7 mph - N/A Rain Light Rain Showers
12:50 AM 55.4 °F - 51.8 °F 88% 29.53 in 6.2 mi SW 21.9 mph - N/A   Mostly Cloudy
1:20 AM 53.6 °F - 51.8 °F 94% 29.53 in - SW 20.7 mph - N/A Rain Light Rain Showers
1:50 AM 53.6 °F - 51.8 °F 94% 29.53 in 3.7 mi SSW 16.1 mph - N/A Rain Light Rain
2:20 AM 53.6 °F - 51.8 °F 94% 29.53 in - SSW 13.8 mph - N/A Rain Light Rain
2:50 AM 53.6 °F - 51.8 °F 94% 29.53 in 6.2 mi SW 18.4 mph - N/A Rain Light Rain
3:20 AM 55.4 °F - 51.8 °F 88% 29.50 in 6.2 mi SW 19.6 mph - N/A Rain Light Rain
3:50 AM 53.6 °F - 51.8 °F 94% 29.50 in 3.1 mi SW 17.3 mph 28.8 mph N/A Rain Light Rain
4:20 AM 50.0 °F - 46.4 °F 87% 29.53 in 3.7 mi West 15.0 mph 26.5 mph N/A Rain Light Rain
4:50 AM 50.0 °F - 46.4 °F 87% 29.56 in 5.6 mi West 13.8 mph - N/A Rain Rain
5:20 AM 48.2 °F - 46.4 °F 93% 29.56 in 4.3 mi SW 10.4 mph - N/A Rain Light Rain
5:50 AM 48.2 °F - 46.4 °F 93% 29.59 in 6.2 mi SW 10.4 mph - N/A Rain Light Rain
6:20 AM 48.2 °F - 46.4 °F 93% 29.59 in 6.2 mi SW 11.5 mph - N/A Rain Light Rain
6:50 AM 48.2 °F - 44.6 °F 87% 29.59 in - SW 13.8 mph - N/A   Clear
7:20 AM 48.2 °F - 44.6 °F 87% 29.62 in 6.2 mi SW 13.8 mph - N/A   Partly Cloudy
7:50 AM 48.2 °F - 44.6 °F 87% 29.62 in 6.2 mi SW 16.1 mph - N/A   Partly Cloudy
8:20 AM 50.0 °F - 44.6 °F 82% 29.65 in 6.2 mi WSW 13.8 mph - N/A   Scattered Clouds
8:50 AM 50.0 °F - 44.6 °F 82% 29.65 in 6.2 mi SW 17.3 mph - N/A   Mostly Cloudy
9:20 AM 50.0 °F - 44.6 °F 82% 29.65 in 6.2 mi SW 16.1 mph - N/A   Scattered Clouds
9:50 AM 51.8 °F - 44.6 °F 76% 29.68 in - SW 16.1 mph - N/A   Clear
10:20 AM 50.0 °F - 42.8 °F 76% 29.68 in 6.2 mi SW 20.7 mph - N/A   Scattered Clouds
10:50 AM 50.0 °F - 44.6 °F 82% 29.71 in 6.2 mi SW 19.6 mph - N/A   Partly Cloudy
11:20 AM 51.8 °F - 41.0 °F 67% 29.71 in 6.2 mi WSW 19.6 mph 35.7 mph N/A   Partly Cloudy
11:50 AM 51.8 °F - 41.0 °F 67% 29.71 in 6.2 mi WSW 21.9 mph 34.5 mph N/A   Scattered Clouds
12:20 PM 51.8 °F - 39.2 °F 62% 29.74 in 6.2 mi WSW 20.7 mph - N/A   Scattered Clouds
12:50 PM 51.8 °F - 39.2 °F 62% 29.74 in 6.2 mi WSW 23.0 mph 35.7 mph N/A   Scattered Clouds
1:20 PM 51.8 °F - 37.4 °F 58% 29.74 in 6.2 mi WSW 26.5 mph 40.3 mph N/A   Scattered Clouds
1:50 PM 51.8 °F - 35.6 °F 54% 29.77 in 6.2 mi WSW 26.5 mph 42.6 mph N/A   Partly Cloudy
2:20 PM 53.6 °F - 35.6 °F 51% 29.77 in 6.2 mi WSW 23.0 mph 38.0 mph N/A   Partly Cloudy
2:50 PM 51.8 °F - 35.6 °F 54% 29.77 in 6.2 mi WSW 24.2 mph 39.1 mph N/A   Partly Cloudy
3:50 PM 51.8 °F - 33.8 °F 50% 29.80 in 6.2 mi WSW 28.8 mph 46.0 mph N/A   Partly Cloudy
4:20 PM 51.8 °F - 33.8 °F 50% 29.83 in 6.2 mi WSW 28.8 mph 40.3 mph N/A   Partly Cloudy
4:50 PM 50.0 °F - 33.8 °F 54% 29.83 in 6.2 mi WSW 25.3 mph - N/A   Partly Cloudy
5:20 PM 50.0 °F - 33.8 °F 54% 29.83 in 6.2 mi WSW 23.0 mph 34.5 mph N/A   Partly Cloudy
5:50 PM 50.0 °F - 35.6 °F 58% 29.86 in 6.2 mi WSW 23.0 mph - N/A   Partly Cloudy
6:20 PM 50.0 °F - 35.6 °F 58% 29.89 in 6.2 mi WSW 23.0 mph 39.1 mph N/A   Partly Cloudy
6:50 PM 48.2 °F - 35.6 °F 62% 29.89 in 6.2 mi WSW 25.3 mph 40.3 mph N/A   Partly Cloudy
7:20 PM 48.2 °F - 35.6 °F 62% 29.92 in - WSW 20.7 mph - N/A   Clear
7:50 PM 48.2 °F - 35.6 °F 62% 29.92 in - WSW 21.9 mph - N/A   Clear
8:20 PM 48.2 °F - 35.6 °F 62% 29.95 in - WSW 17.3 mph - N/A   Clear
8:50 PM 46.4 °F 39.5 °F 35.6 °F 66% 29.95 in - WSW 17.3 mph - N/A   Clear
10:20 PM 46.4 °F 39.5 °F 37.4 °F 71% 30.01 in 6.2 mi WSW 17.3 mph - N/A   Unknown
10:50 PM 46.4 °F 39.5 °F 35.6 °F 66% 30.01 in 6.2 mi WSW 17.3 mph - N/A   Unknown
11:20 PM 46.4 °F 39.8 °F 37.4 °F 71% 30.04 in 6.2 mi SW 16.1 mph - N/A   Unknown
11:50 PM 44.6 °F 36.9 °F 37.4 °F 76% 30.04 in 6.2 mi SW 18.4 mph - N/A   Unknown